Location: Houhaj�rvi
(61.2833°N, 23.0000°E)
Time: 00:42:17
(UTC+00:00)

Cosmos 2219 Rocket - Pass Details

Date: 27 February 2020
Orbit: 828 x 846 km, 71.0° (Epoch: 04 April)

Event Time Altitude Azimuth Distance (km) Brightness Sun altitude
Exits shadow 23:36:08 31° 54° (NE) 1,459 3.7 -36.0°
Drops below altitude 10° 23:39:02 10° 44° (NE) 2,478 5.3 -35.9°
Sets 23:41:30 0° 41° (NE) 3,414 6.2 -35.8°
